[[{"header":{"parameterUnit":"m.s-1","parameterCategory":1,"la1":30.2991,"la2":30.254,"lo1":-89.0895,"lo2":-89.0444,"dy":0.0017,"dx":0.0017,"nx":28,"ny":28,"refTime":"2025-09-07T03:00:00:Z","depth":0,"parameterNumber":2,"parameterNumberName":"U-component_of_WINDS"},"data":[0,0,0,0,0,0,0,0,0,0,0,0,0,0,0,0,0,0,0,0,0,0,0,0,0,0,0,0,0,0,0,0,0,0,0,0,0,0,0,0,0,0,0,0,0,0,0,0,0,0,0,0,0,0,0,0,0,0,-1.9733,-1.9733,0,-1.973,-1.973,-1.973,-1.9649,-1.9647,-1.9644,-1.9643,-1.9643,-1.9644,-1.9646,0,0,0,0,0,0,0,0,0,0,0,0,0,-1.9669,-1.9671,-1.9733,-1.9733,-1.9733,-1.973,-1.973,-1.973,-1.9649,-1.9647,-1.9644,-1.9642,-1.9642,-1.9644,-1.9647,0,0,0,0,0,0,0,0,0,0,0,0,0,-1.9685,-1.9671,-1.9733,-1.9692,-1.9688,-1.973,-1.973,-1.973,-1.965,-1.9646,-1.9643,-1.964,-1.9641,-1.9644,-1.9647,-1.9728,0,0,-1.9656,-1.9657,0,0,0,0,0,0,0,0,-1.9684,-1.9687,-1.9698,-1.9695,-1.9691,-1.9686,-1.9707,-1.973,-1.965,-1.9664,-1.9642,-1.9639,-1.966,-1.9661,-1.9668,-1.9728,-1.9728,-1.9656,-1.9658,-1.9659,-1.966,0,0,0,0,0,0,0,-1.9683,-1.9687,-1.9732,-1.9698,-1.9694,-1.9674,-1.9673,-1.9711,-1.968,-1.9663,-1.9657,-1.9658,-1.9657,-1.9665,-1.9667,-1.9728,-1.9656,-1.9659,-1.9661,-1.9662,-1.9855,-1.9858,0,0,0,0,0,0,-1.9687,-1.9686,-1.9732,-1.9732,-1.9679,-1.9678,-1.9676,-1.9691,-1.9679,-1.9674,-1.966,-1.9654,-1.9662,-1.9664,-1.9667,-1.9761,-1.9659,-1.9662,-1.9664,-1.9852,-1.9856,-1.9859,0,0,0,0,0,0,-1.9686,-1.9692,-1.9732,-1.9707,-1.9711,-1.9682,-1.9699,-1.9693,-1.97,-1.9677,-1.9672,-1.9674,-1.9659,-1.9663,-1.9713,-1.976,-1.9663,-1.9666,-1.9848,-1.9853,-1.9858,-1.9951,0,0,0,0,0,0,-1.9685,-1.9692,-1.9723,-1.9709,-1.9713,-1.9779,-1.9702,-1.9695,-1.9705,-1.9697,-1.9689,-1.9684,-1.9657,-1.9709,-1.9716,-1.9762,-1.9668,-1.9843,-1.985,-1.9856,-1.9944,-1.9959,-1.9972,0,0,0,0,0,-1.9683,-1.975,-1.9725,-1.9731,-1.975,-1.9781,-1.9784,-1.975,-1.9709,-1.974,-1.9725,-1.9684,-1.9753,-1.9715,-1.9722,-1.977,-1.984,-1.9848,-1.9855,-1.9938,-1.9956,-1.9971,0,0,0,0,0,0,-1.9772,-1.9748,-1.9719,-1.9784,-1.9785,-1.9768,-1.9805,-1.9771,-1.9784,-1.9776,-1.9734,-1.9733,-1.9791,-1.9785,-1.9743,-1.9848,-1.979,-1.9799,-1.985,-1.9867,-1.9881,-1.9882,-1.9671,0,0,0,0,0,-1.9799,-1.9826,-1.9803,-1.9862,-1.9864,-1.9835,-1.9847,-1.9821,-1.9821,-1.9822,-1.981,-1.9813,-1.9834,-1.985,-1.9869,-1.9942,-1.9939,-1.9978,-1.9992,-2.0004,-2.0013,-2.0051,-2.0068,-1.9884,-1.9884,-1.9884,0,0,-1.9856,-1.9846,-1.9865,-1.988,-1.9878,-1.9907,-1.9836,-1.987,-1.9891,-1.9827,-1.9874,-1.9866,-1.9865,-1.9927,-1.9954,-1.9925,-2.0062,-2.0013,-2.0023,-2.0026,-2.006,-2.0078,-2.0093,-1.9889,-1.9888,-1.9888,0,0,-1.9974,-1.9969,-2.0017,-2.0016,-2.0013,-1.9992,-2.0004,-1.9991,-1.9983,-2.0029,-1.9981,-2.0006,-2.0045,-2.0046,-2.0052,-2.0169,-2.0132,-2.0176,-2.0249,-2.0287,-2.0301,-2.0314,-2.0356,-2.0372,-2.0185,-2.0185,-2.0185,0,-2.0046,-2.0087,-2.0047,-2.0084,-2.0092,-2.0033,-2.0082,-2.0082,-2.0087,-2.0094,-2.006,-2.0106,-2.0102,-2.0164,-2.0192,-2.0198,-2.0211,-2.0178,-2.0302,-2.0314,-2.0326,-2.0365,-2.0381,-2.019,-2.019,-2.0189,-2.0189,0,-2.0175,-2.0204,-2.0243,-2.0247,-2.0259,-2.0302,-2.0269,-2.0286,-2.0258,-2.0241,-2.0289,-2.0281,-2.0297,-2.0309,-2.0283,-2.0367,-2.0349,-2.0309,-2.025,-2.0349,-2.0386,-2.0401,-2.0198,-2.0196,-2.0194,-2.0193,0,0,-2.0352,-2.0331,-2.0347,-2.0347,-2.0338,-2.036,-2.04,-2.0414,-2.043,-2.0434,-2.0467,-2.05,-2.0463,-2.0469,-2.0442,-2.0475,-2.0568,-2.0431,-2.043,-2.0458,-2.066,-2.0691,-2.071,-2.0543,-2.0545,-2.0548,-2.0661,0,-2.0467,-2.0533,-2.0498,-2.0569,-2.0595,-2.0538,-2.0573,-2.0571,-2.0556,-2.0577,-2.056,-2.0584,-2.0533,-2.0537,-2.0566,-2.0551,-2.0608,-2.0542,-2.0574,-2.0576,-2.0577,-2.0729,-2.0762,-2.0869,-2.0675,-2.0677,-2.0679,0,-2.0611,-2.0619,-2.0693,-2.0678,-2.0687,-2.0719,-2.0729,-2.0749,-2.0746,-2.0732,-2.0739,-2.0703,-2.0741,-2.0681,-2.0734,-2.0689,-2.07,-2.0694,-2.0697,-2.07,-2.0635,-2.0737,-2.0902,-2.0919,-2.0701,-2.0699,-2.0698,0,-2.0734,-2.0764,-2.0811,-2.0813,-2.0796,-2.082,-2.0814,-2.0808,-2.0818,-2.0827,-2.0833,-2.0846,-2.0854,-2.0865,-2.0835,-2.0794,-2.0891,-2.0829,-2.0882,-2.0883,-2.0907,-2.0906,-2.1078,-2.0912,-2.0911,-2.0911,-2.0911,0,-2.0867,-2.0915,-2.0866,-2.0896,-2.0947,-2.0905,-2.0957,-2.0945,-2.0939,-2.0966,-2.0917,-2.0943,-2.09,-2.0922,-2.0898,-2.0945,-2.0949,-2.094,-2.0933,-2.0945,-2.0946,-2.0953,-2.0945,-2.0915,-2.0914,-2.0914,-2.0913,0,-2.1014,-2.0983,-2.1032,-2.1011,-2.1006,-2.1045,-2.1028,-2.1054,-2.1034,-2.1069,-2.1074,-2.1044,-2.1067,-2.1037,-2.1057,-2.1041,-2.1106,-2.1087,-2.1107,-2.1102,-2.1157,-2.1153,-2.134,-2.1363,-2.1181,-2.1183,-2.1184,0,-2.1102,-2.1137,-2.1119,-2.1133,-2.1129,-2.1152,-2.1162,-2.1121,-2.1133,-2.1131,-2.1158,-2.1177,-2.119,-2.1229,-2.121,-2.1225,-2.1207,-2.1271,-2.1209,-2.122,-2.1209,-2.1208,-2.1212,-2.1285,-2.1287,-2.1289,-2.129,0,-2.1262,-2.1244,-2.1259,-2.1269,-2.1282,-2.1288,-2.1291,-2.1305,-2.1262,-2.1278,-2.13,-2.131,-2.133,-2.1349,-2.1359,-2.1353,-2.1316,-2.131,-2.1323,-2.1336,-2.1347,-2.1343,-2.1143,-2.1306,-2.1305,-2.1303,-2.1303,-2.1302,-2.1383,-2.141,-2.1402,-2.142,-2.1417,-2.142,-2.1444,-2.1426,-2.1443,-2.1456,-2.143,-2.1459,-2.1453,-2.1462,-2.1461,-2.1483,-2.1455,-2.1474,-2.1479,-2.1485,-2.1494,-2.1342,-2.1484,-2.1484,-2.1483,-2.1483,-2.1482,0,-2.154,-2.1531,-2.1548,-2.1552,-2.1567,-2.1527,-2.1527,-2.1543,-2.1568,-2.1565,-2.1578,-2.1603,-2.1621,-2.1602,-2.1616,-2.1637,-2.162,-2.1643,-2.1642,-2.1641,-2.1517,-2.1505,-2.1656,-2.1656,-2.1656,-2.1656,-2.1656,-2.1656,-2.1624,-2.1669,-2.165,-2.1693,-2.1684,-2.171,-2.1713,-2.1716,-2.1714,-2.1743,-2.1757,-2.1744,-2.1735,-2.1748,-2.1762,-2.1756,-2.1764,-2.1793,-2.1781,-2.1667,-2.165,-2.1634,-2.1622,-2.1795,-2.1795,-2.1903,-2.1904,-2.1905]},{"header":{"parameterUnit":"m.s-1","parameterCategory":1,"la1":30.2991,"la2":30.254,"lo1":-89.0895,"lo2":-89.0444,"dy":0.0017,"dx":0.0017,"nx":28,"ny":28,"refTime":"2025-09-07T03:00:00:Z","depth":0,"parameterNumber":3,"parameterNumberName":"V-component_of_WINDS"},"data":[0,0,0,0,0,0,0,0,0,0,0,0,0,0,0,0,0,0,0,0,0,0,0,0,0,0,0,0,0,0,0,0,0,0,0,0,0,0,0,0,0,0,0,0,0,0,0,0,0,0,0,0,0,0,0,0,0,0,-6.5786,-6.5787,0,-6.5865,-6.5866,-6.5867,-6.5765,-6.5762,-6.5758,-6.5755,-6.5829,-6.5834,-6.584,0,0,0,0,0,0,0,0,0,0,0,0,0,-6.5542,-6.5548,-6.5786,-6.5787,-6.5788,-6.5865,-6.5866,-6.5867,-6.5766,-6.5762,-6.5757,-6.5753,-6.5827,-6.5834,-6.584,0,0,0,0,0,0,0,0,0,0,0,0,0,-6.5637,-6.5549,-6.5786,-6.5747,-6.5745,-6.5864,-6.5866,-6.5867,-6.5767,-6.5762,-6.5756,-6.5751,-6.5825,-6.5833,-6.5841,-6.6001,0,0,-6.5866,-6.5869,0,0,0,0,0,0,0,0,-6.5632,-6.5646,-6.5752,-6.575,-6.5748,-6.58,-6.5807,-6.5912,-6.5768,-6.5758,-6.5755,-6.5748,-6.5824,-6.5831,-6.5858,-6.6004,-6.6008,-6.5867,-6.5872,-6.5875,-6.5877,0,0,0,0,0,0,0,-6.5626,-6.5642,-6.5817,-6.5754,-6.5751,-6.5724,-6.5731,-6.5826,-6.5821,-6.5759,-6.5752,-6.5763,-6.5821,-6.585,-6.5859,-6.6009,-6.5866,-6.5874,-6.5879,-6.5882,-6.6288,-6.6294,0,0,0,0,0,0,-6.5625,-6.5638,-6.5815,-6.5819,-6.5675,-6.5733,-6.5741,-6.5788,-6.5819,-6.5819,-6.5767,-6.5758,-6.5839,-6.585,-6.5861,-6.6049,-6.5875,-6.5883,-6.5887,-6.6282,-6.629,-6.6296,0,0,0,0,0,0,-6.562,-6.5641,-6.5811,-6.5727,-6.5746,-6.5743,-6.5797,-6.5793,-6.5822,-6.5826,-6.5824,-6.5799,-6.5835,-6.585,-6.5967,-6.6051,-6.5886,-6.5894,-6.6275,-6.6285,-6.6293,-6.6428,0,0,0,0,0,0,-6.5613,-6.564,-6.5703,-6.5729,-6.5751,-6.5918,-6.5802,-6.5798,-6.5837,-6.5825,-6.5855,-6.5854,-6.5832,-6.5955,-6.5975,-6.6059,-6.59,-6.6268,-6.6279,-6.629,-6.6416,-6.644,-6.6461,0,0,0,0,0,-6.5605,-6.5736,-6.5706,-6.5728,-6.583,-6.5923,-6.5936,-6.591,-6.5844,-6.5906,-6.5908,-6.5853,-6.6038,-6.5968,-6.5989,-6.6077,-6.6262,-6.6276,-6.6289,-6.6406,-6.6435,-6.6461,0,0,0,0,0,0,-6.5718,-6.5739,-6.5706,-6.585,-6.5886,-6.5906,-6.5983,-6.5942,-6.5995,-6.5982,-6.5945,-6.5952,-6.6078,-6.6089,-6.601,-6.6232,-6.6139,-6.6157,-6.6221,-6.6249,-6.6271,-6.6265,-6.5907,0,0,0,0,0,-6.576,-6.5837,-6.585,-6.5976,-6.5996,-6.5987,-6.6027,-6.6004,-6.6038,-6.6052,-6.6063,-6.6097,-6.6162,-6.6206,-6.6267,-6.6417,-6.6421,-6.6487,-6.651,-6.6528,-6.6544,-6.6623,-6.6653,-6.634,-6.634,-6.634,0,0,-6.5847,-6.5868,-6.5918,-6.5999,-6.6024,-6.6102,-6.6,-6.6087,-6.6144,-6.6064,-6.6176,-6.6185,-6.622,-6.6355,-6.6414,-6.6368,-6.6632,-6.6545,-6.656,-6.6566,-6.664,-6.667,-6.6696,-6.6349,-6.6347,-6.6346,0,0,-6.6045,-6.607,-6.6177,-6.6205,-6.6244,-6.6237,-6.6263,-6.629,-6.6293,-6.6405,-6.6347,-6.6413,-6.6527,-6.6554,-6.6583,-6.6792,-6.6743,-6.6812,-6.693,-6.7008,-6.7032,-6.7054,-6.7127,-6.7154,-6.6828,-6.6829,-6.6829,0,-6.6148,-6.6266,-6.6237,-6.6329,-6.6365,-6.6299,-6.6406,-6.6433,-6.649,-6.6515,-6.6463,-6.6605,-6.6624,-6.6763,-6.6814,-6.684,-6.6866,-6.6809,-6.7031,-6.7053,-6.7072,-6.7142,-6.717,-6.6837,-6.6836,-6.6835,-6.6834,0,-6.6389,-6.6472,-6.6553,-6.6612,-6.6657,-6.6756,-6.6741,-6.679,-6.6762,-6.676,-6.6874,-6.6895,-6.6958,-6.6989,-6.6962,-6.7124,-6.7094,-6.7038,-6.6943,-6.7111,-6.7176,-6.7202,-6.6848,-6.6845,-6.6843,-6.6841,0,0,-6.6661,-6.6703,-6.6733,-6.6759,-6.6797,-6.6859,-6.6954,-6.7018,-6.706,-6.7101,-6.7179,-6.7277,-6.7224,-6.7257,-6.7233,-6.7301,-6.7464,-6.7235,-6.7235,-6.7276,-6.7642,-6.7684,-6.7716,-6.7432,-6.7437,-6.7441,-6.7639,0,-6.6859,-6.7026,-6.7003,-6.7162,-6.7237,-6.7174,-6.7257,-6.7288,-6.7289,-6.735,-6.7349,-6.7419,-6.7345,-6.7364,-6.7429,-6.743,-6.7536,-6.7416,-6.7502,-6.7505,-6.7495,-6.775,-6.7795,-6.7981,-6.7664,-6.7668,-6.7671,0,-6.7113,-6.7165,-6.7333,-6.736,-6.739,-6.7465,-6.7521,-6.7581,-6.7615,-6.761,-6.7647,-6.761,-6.7703,-6.7607,-6.7733,-6.7652,-6.7685,-6.7691,-6.7698,-6.7704,-6.7598,-6.7762,-6.8039,-6.8067,-6.7711,-6.7708,-6.7705,0,-6.7293,-6.7405,-6.752,-6.7544,-6.7578,-6.7632,-6.7648,-6.7676,-6.7716,-6.7764,-6.7789,-6.7847,-6.7878,-6.7923,-6.7902,-6.7835,-6.8031,-6.7934,-6.8028,-6.8029,-6.8072,-6.807,-6.8358,-6.8095,-6.8095,-6.8094,-6.8094,0,-6.7516,-6.7621,-6.7602,-6.7672,-6.7787,-6.7758,-6.7872,-6.788,-6.7906,-6.7975,-6.7924,-6.7989,-6.7958,-6.8021,-6.8004,-6.8111,-6.8125,-6.8122,-6.8117,-6.8127,-6.8127,-6.8148,-6.8134,-6.8102,-6.81,-6.8099,-6.8097,0,-6.7737,-6.7729,-6.785,-6.7873,-6.7881,-6.7964,-6.7982,-6.8047,-6.8044,-6.8132,-6.8151,-6.8144,-6.8216,-6.8199,-6.8277,-6.8265,-6.8399,-6.8377,-6.8389,-6.8383,-6.8478,-6.8469,-6.8789,-6.8829,-6.8541,-6.8544,-6.8546,0,-6.788,-6.796,-6.7992,-6.8036,-6.8057,-6.8128,-6.8168,-6.8142,-6.8186,-6.823,-6.8289,-6.8356,-6.8408,-6.8525,-6.8526,-6.8584,-6.8563,-6.8671,-6.8571,-6.8579,-6.8564,-6.8559,-6.8566,-6.8691,-6.8694,-6.8697,-6.8699,0,-6.8135,-6.8126,-6.8188,-6.8249,-6.8299,-6.8345,-6.8385,-6.8423,-6.84,-6.8452,-6.8525,-6.8566,-6.8645,-6.8712,-6.8766,-6.878,-6.8736,-6.8731,-6.8755,-6.8766,-6.8769,-6.8768,-6.8442,-6.8723,-6.8721,-6.8719,-6.8718,-6.8717,-6.832,-6.8388,-6.8421,-6.8491,-6.8519,-6.8558,-6.862,-6.8625,-6.8686,-6.8751,-6.8731,-6.8814,-6.8844,-6.8912,-6.8933,-6.8996,-6.8955,-6.8991,-6.9,-6.9009,-6.902,-6.876,-6.9005,-6.9005,-6.9004,-6.9003,-6.9003,0,-6.8571,-6.8589,-6.8654,-6.8714,-6.8768,-6.8724,-6.8766,-6.8814,-6.8889,-6.8922,-6.8974,-6.9058,-6.9122,-6.9129,-6.9188,-6.9238,-6.9219,-6.9254,-6.925,-6.9253,-6.9054,-6.9026,-6.9268,-6.9268,-6.9268,-6.9268,-6.9268,-6.9268,-6.8708,-6.882,-6.8815,-6.894,-6.8956,-6.9039,-6.9067,-6.9102,-6.9128,-6.9224,-6.9278,-6.9283,-6.9304,-6.9365,-6.9421,-6.9421,-6.9445,-6.9489,-6.9481,-6.9294,-6.9268,-6.9242,-6.9216,-6.9494,-6.9495,-6.9675,-6.9676,-6.9678]}]]